When you browse on this site, cookies collect data to enhance your experience and personalize the content and advertising you see.
Visit our Privacy Policy to learn more. By continuing to use the site, you agree to this use of cookies and data.
  • En España
  • Lista de países
  • Para 7 días
  • Temperatura del agua
  • El tiempo en el mapa
  • Informadores
  • user-avatar
    Iniciar sesión

    Tiempo cada hora Konotop

    Hoy, 7 Abril, Martes

    Tiempo Temperatura Precipitaciones Viento Presión Humedad
    00:00 +5°C° 0 mm 2 mps 763 mmHg 75%
    01:00 +5°C° 0 mm 2 mps 763 mmHg 77%
    02:00 +5°C° 0 mm 2 mps 763 mmHg 79%
    03:00 +4°C° 0 mm 2 mps 763 mmHg 81%
    04:00 +4°C° 0 mm 2 mps 763 mmHg 84%
    05:00 +3°C° 0 mm 2 mps 764 mmHg 86%
    06:00 +5°C° 0 mm 2 mps 764 mmHg 81%
    07:00 +6°C° 0 mm 2 mps 764 mmHg 76%
    08:00 +7°C° 0 mm 2 mps 764 mmHg 71%
    09:00 +10°C° 0 mm 1 mps 764 mmHg 65%
    10:00 +11°C° 0 mm 1 mps 764 mmHg 59%
    11:00 +12°C° 0 mm 1 mps 764 mmHg 53%
    12:00 +13°C° 0 mm 1 mps 764 mmHg 50%
    13:00 +14°C° 0 mm 1 mps 764 mmHg 47%
    14:00 +14°C° 0 mm 1 mps 764 mmHg 45%
    15:00 +14°C° 0 mm 1 mps 763 mmHg 45%
    16:00 +14°C° 0 mm 1 mps 763 mmHg 45%
    17:00 +14°C° 0 mm 2 mps 763 mmHg 46%
    18:00 +13°C° 0 mm 2 mps 762 mmHg 49%
    19:00 +12°C° 0 mm 2 mps 762 mmHg 52%
    20:00 +10°C° 0 mm 2 mps 762 mmHg 56%
    21:00 +9°C° 0 mm 2 mps 761 mmHg 58%
    22:00 +9°C° 0 mm 3 mps 761 mmHg 60%
    23:00 +8°C° 0 mm 3 mps 761 mmHg 62%

    Mañana, 8 Abril, Miércoles

    Tiempo Temperatura Precipitaciones Viento Presión Humedad
    00:00 +7°C° 0 mm 4 mps 761 mmHg 63%
    01:00 +6°C° 0 mm 4 mps 760 mmHg 64%
    02:00 +6°C° 0 mm 4 mps 760 mmHg 65%
    03:00 +6°C° 0 mm 4 mps 759 mmHg 65%
    04:00 +6°C° 0 mm 5 mps 759 mmHg 65%
    05:00 +5°C° 0 mm 5 mps 758 mmHg 66%
    06:00 +7°C° 0 mm 5 mps 758 mmHg 60%
    07:00 +8°C° 0 mm 6 mps 757 mmHg 55%
    08:00 +9°C° 0 mm 6 mps 757 mmHg 50%
    09:00 +11°C° 0 mm 6 mps 756 mmHg 48%
    10:00 +12°C° 0 mm 7 mps 756 mmHg 46%
    11:00 +15°C° 0 mm 7 mps 756 mmHg 44%
    12:00 +15°C° 0 mm 7 mps 755 mmHg 45%
    13:00 +15°C° 0 mm 7 mps 755 mmHg 45%
    14:00 +16°C° 0 mm 7 mps 755 mmHg 46%
    15:00 +15°C° 0 mm 6 mps 755 mmHg 49%
    16:00 +15°C° 0 mm 5 mps 754 mmHg 51%
    17:00 +14°C° 0 mm 5 mps 754 mmHg 54%
    18:00 +12°C° 0 mm 4 mps 754 mmHg 60%
    19:00 +11°C° 0 mm 3 mps 755 mmHg 65%
    20:00 +9°C° 0 mm 3 mps 755 mmHg 71%
    21:00 +9°C° 0 mm 2 mps 755 mmHg 74%
    22:00 +8°C° 0 mm 2 mps 755 mmHg 77%
    23:00 +7°C° 0 mm 2 mps 755 mmHg 80%

    Pasado mañana, 9 Abril, Jueves

    Tiempo Temperatura Precipitaciones Viento Presión Humedad
    00:00 +8°C° 0 mm 1 mps 755 mmHg 81%
    01:00 +7°C° 0 mm 1 mps 754 mmHg 82%
    02:00 +7°C° 0 mm 1 mps 754 mmHg 83%
    03:00 +6°C° 0 mm 1 mps 754 mmHg 84%
    04:00 +5°C° 0 mm 0 mps 754 mmHg 85%
    05:00 +5°C° 0 mm 0 mps 754 mmHg 86%
    06:00 +7°C° 0 mm 1 mps 754 mmHg 80%
    07:00 +8°C° 0 mm 1 mps 754 mmHg 74%
    08:00 +10°C° 0 mm 1 mps 753 mmHg 68%
    09:00 +10°C° 0 mm 2 mps 753 mmHg 61%
    10:00 +12°C° 0 mm 2 mps 753 mmHg 53%
    11:00 +14°C° 0 mm 2 mps 752 mmHg 45%
    12:00 +15°C° 0 mm 2 mps 752 mmHg 42%
    13:00 +16°C° 0 mm 3 mps 751 mmHg 39%
    14:00 +17°C° 0 mm 3 mps 751 mmHg 36%
    15:00 +17°C° 0 mm 3 mps 750 mmHg 39%
    16:00 +17°C° 0 mm 3 mps 750 mmHg 41%
    17:00 +17°C° 0 mm 3 mps 749 mmHg 43%
    18:00 +14°C° 0 mm 3 mps 749 mmHg 47%
    19:00 +14°C° 0 mm 2 mps 749 mmHg 51%
    20:00 +13°C° 0 mm 2 mps 748 mmHg 55%
    21:00 +12°C° 0 mm 3 mps 748 mmHg 54%
    22:00 +12°C° 0 mm 3 mps 748 mmHg 54%
    23:00 +12°C° 0 mm 3 mps 747 mmHg 54%

    10 Abril, Viernes

    Tiempo Temperatura Precipitaciones Viento Presión Humedad
    00:00 +12°C° 0 mm 3 mps 747 mmHg 57%
    01:00 +11°C° 0 mm 4 mps 746 mmHg 60%
    02:00 +11°C° 0 mm 4 mps 746 mmHg 63%
    03:00 +10°C° 0 mm 3 mps 746 mmHg 68%
    04:00 +9°C° 0 mm 3 mps 745 mmHg 74%
    05:00 +8°C° 0 mm 3 mps 745 mmHg 79%
    06:00 +9°C° 0.1 mm 3 mps 745 mmHg 78%
    07:00 +10°C° 0.1 mm 4 mps 745 mmHg 77%
    08:00 +10°C° 0.1 mm 4 mps 745 mmHg 76%
    09:00 +10°C° 0.6 mm 4 mps 745 mmHg 79%
    10:00 +10°C° 0.6 mm 4 mps 745 mmHg 81%
    11:00 +10°C° 0.6 mm 4 mps 745 mmHg 83%
    12:00 +9°C° 0.3 mm 5 mps 745 mmHg 75%
    13:00 +10°C° 0.3 mm 5 mps 746 mmHg 68%
    14:00 +10°C° 0.3 mm 6 mps 746 mmHg 61%
    15:00 +10°C° 0 mm 6 mps 746 mmHg 58%
    16:00 +9°C° 0 mm 6 mps 746 mmHg 55%
    17:00 +9°C° 0 mm 6 mps 746 mmHg 52%
    18:00 +7°C° 0 mm 6 mps 747 mmHg 53%
    19:00 +5°C° 0 mm 6 mps 748 mmHg 55%
    20:00 +5°C° 0 mm 5 mps 748 mmHg 56%
    21:00 +3°C° 0 mm 5 mps 748 mmHg 59%
    22:00 +3°C° 0 mm 5 mps 749 mmHg 62%
    23:00 +3°C° 0 mm 4 mps 749 mmHg 65%

    11 Abril, Sábado

    Tiempo Temperatura Precipitaciones Viento Presión Humedad
    00:00 +3°C° 0 mm 4 mps 749 mmHg 66%
    01:00 +1°C° 0 mm 4 mps 749 mmHg 67%
    02:00 +1°C° 0 mm 4 mps 749 mmHg 68%
    03:00 0°C° 0 mm 4 mps 750 mmHg 70%
    04:00 0°C° 0 mm 4 mps 750 mmHg 72%
    05:00 -1°C° 0 mm 4 mps 750 mmHg 73%
    06:00 0°C° 0 mm 4 mps 750 mmHg 68%
    07:00 +1°C° 0 mm 5 mps 751 mmHg 63%
    08:00 +2°C° 0 mm 5 mps 751 mmHg 58%
    09:00 +3°C° 0 mm 5 mps 751 mmHg 54%
    10:00 +4°C° 0 mm 6 mps 751 mmHg 50%
    11:00 +5°C° 0 mm 6 mps 751 mmHg 46%
    12:00 +7°C° 0 mm 6 mps 752 mmHg 45%
    13:00 +7°C° 0 mm 6 mps 752 mmHg 44%
    14:00 +7°C° 0 mm 6 mps 752 mmHg 43%
    15:00 +7°C° 0 mm 5 mps 752 mmHg 43%
    16:00 +7°C° 0 mm 5 mps 752 mmHg 43%
    17:00 +6°C° 0 mm 5 mps 752 mmHg 43%
    18:00 +5°C° 0 mm 4 mps 752 mmHg 47%
    19:00 +4°C° 0 mm 3 mps 753 mmHg 51%
    20:00 +3°C° 0 mm 3 mps 753 mmHg 55%
    21:00 +4°C° 0 mm 2 mps 754 mmHg 57%
    22:00 +3°C° 0 mm 2 mps 754 mmHg 59%
    23:00 +2°C° 0 mm 2 mps 754 mmHg 61%

    12 Abril, Domingo

    Tiempo Temperatura Precipitaciones Viento Presión Humedad
    00:00 +2°C° 0 mm 2 mps 754 mmHg 61%
    01:00 +2°C° 0 mm 2 mps 755 mmHg 62%
    02:00 +1°C° 0 mm 2 mps 755 mmHg 62%
    03:00 +2°C° 0 mm 1 mps 755 mmHg 63%
    04:00 +1°C° 0 mm 1 mps 755 mmHg 63%
    05:00 +1°C° 0 mm 1 mps 755 mmHg 64%
    06:00 +3°C° 0 mm 1 mps 755 mmHg 58%
    07:00 +4°C° 0 mm 1 mps 755 mmHg 53%
    08:00 +6°C° 0 mm 1 mps 755 mmHg 47%
    09:00 +7°C° 0 mm 1 mps 755 mmHg 42%
    10:00 +8°C° 0 mm 1 mps 755 mmHg 37%
    11:00 +9°C° 0 mm 1 mps 755 mmHg 32%
    12:00 +9°C° 0 mm 1 mps 755 mmHg 31%
    13:00 +10°C° 0 mm 1 mps 755 mmHg 30%
    14:00 +10°C° 0 mm 1 mps 755 mmHg 28%
    15:00 +10°C° 0 mm 1 mps 754 mmHg 29%
    16:00 +10°C° 0 mm 1 mps 754 mmHg 29%
    17:00 +10°C° 0 mm 1 mps 754 mmHg 29%
    18:00 +9°C° 0 mm 1 mps 754 mmHg 32%
    19:00 +8°C° 0 mm 1 mps 754 mmHg 35%
    20:00 +6°C° 0 mm 2 mps 754 mmHg 38%
    21:00 +5°C° 0 mm 2 mps 753 mmHg 40%
    22:00 +4°C° 0 mm 3 mps 753 mmHg 41%
    23:00 +3°C° 0 mm 3 mps 753 mmHg 43%
    Mostrar más